Date String (YYYY-MM-DD hh:mm:ss) UTC,Instrument flags,Ambient pressure (hPa),Sample flow (lpm),Bypass flow (lpm),Sample temperature (°C),Ambient temperature (°C),ASC tube jacket temperature (°C),LED temperature (°C),Box temperature (°C),Sample RH (%),Span deviation,Mass concentration (μg/m³),Mass concentration (μg/m³),Mass concentration (μg/m³)
DateTimeUTC,F1_M11,P_M11,Q1_M11,Q2_M11,T1_M11,T2_M11,T3_M11,T4_M11,T5_M11,U1_M11,ZSPAN_M11,X0_M11,X2_M11,X1_M11
2023-01-29 07:00:00,,0824.0,5.00,0.00,22.4,20.9,00.0,31.2,24.0,07.0,0000.0,0005.69,0004.08,0003.92
2023-01-29 07:01:00,,0824.0,5.01,0.00,22.3,20.7,00.0,31.2,23.9,07.0,0000.0,0005.67,0004.09,0003.94
2023-01-29 07:02:00,,0823.9,4.98,0.00,22.3,20.5,00.0,31.2,23.8,07.0,0000.0,0005.54,0004.10,0003.95
2023-01-29 07:03:00,,0823.9,5.00,0.00,22.2,20.4,00.0,31.2,23.7,07.0,0000.0,0005.12,0004.10,0003.96
2023-01-29 07:04:00,,0824.0,5.01,0.00,22.2,20.9,00.0,31.1,23.9,07.0,0000.0,0005.06,0004.10,0003.96
2023-01-29 07:05:00,,0823.9,5.01,0.00,22.3,21.9,00.0,31.1,24.2,07.0,0000.0,0005.16,0004.13,0003.97
2023-01-29 07:06:00,,0824.0,5.01,0.00,22.4,22.7,00.0,31.1,24.4,06.9,0000.0,0005.22,0004.15,0003.99
2023-01-29 07:07:00,,0823.9,4.99,0.00,22.5,22.4,00.0,31.2,24.4,06.9,0000.0,0005.26,0004.16,0003.99
2023-01-29 07:08:00,,0823.9,5.01,0.00,22.5,21.9,00.0,31.2,24.2,06.9,0000.0,0005.22,0004.14,0003.98
2023-01-29 07:09:00,,0823.9,5.00,0.00,22.4,21.4,00.0,31.2,24.1,06.9,0000.0,0005.20,0004.14,0003.98
2023-01-29 07:10:00,,0823.8,4.99,0.00,22.4,21.0,00.0,31.2,24.0,06.9,0000.0,0005.16,0004.14,0003.98
2023-01-29 07:11:00,,0823.8,4.99,0.00,22.3,20.8,00.0,31.2,23.9,07.0,0000.0,0005.11,0004.13,0003.98
2023-01-29 07:12:00,,0823.8,5.02,0.00,22.3,20.6,00.0,31.2,23.8,07.0,0000.0,0005.42,0004.13,0003.98
2023-01-29 07:13:00,,0823.8,5.00,0.00,22.2,20.4,00.0,31.2,23.8,07.0,0000.2,0005.44,0004.13,0003.98
2023-01-29 07:14:00,,0823.8,5.02,0.00,22.2,20.7,00.0,31.1,23.8,07.0,0001.3,0005.54,0004.15,0003.98
2023-01-29 07:15:00,,0823.8,4.99,0.00,22.3,21.7,00.0,31.1,24.1,07.0,0000.0,0005.55,0004.15,0003.98
2023-01-29 07:16:00,,0823.8,4.99,0.00,22.4,22.6,00.0,31.1,24.3,07.0,0000.0,0005.46,0004.12,0003.97
2023-01-29 07:17:00,,0823.7,5.00,0.00,22.4,22.5,00.0,31.2,24.4,07.0,0000.0,0005.43,0004.11,0003.95
2023-01-29 07:18:00,,0823.7,4.99,0.00,22.4,22.0,00.0,31.2,24.2,07.0,0000.0,0005.36,0004.10,0003.95
2023-01-29 07:19:00,,0823.7,5.02,0.00,22.4,21.5,00.0,31.2,24.1,07.0,0000.0,0005.48,0004.13,0003.97
2023-01-29 07:20:00,,0823.7,5.00,0.00,22.3,21.1,00.0,31.2,24.0,07.0,0000.0,0005.49,0004.14,0003.99
2023-01-29 07:21:00,,0823.7,5.00,0.00,22.3,20.8,00.0,31.2,23.9,07.0,0000.0,0005.81,0004.18,0004.02
2023-01-29 07:22:00,,0823.7,4.99,0.00,22.2,20.5,00.0,31.2,23.8,07.0,0000.0,0005.82,0004.17,0004.02
2023-01-29 07:23:00,,0823.7,5.00,0.00,22.2,20.4,00.0,31.2,23.7,07.0,0000.0,0005.51,0004.16,0004.01
2023-01-29 07:24:00,,0823.7,5.00,0.00,22.2,21.1,00.0,31.1,23.9,07.0,0000.0,0005.50,0004.17,0004.00
2023-01-29 07:25:00,,0823.8,5.02,0.00,22.3,22.2,00.0,31.1,24.2,07.0,0000.0,0005.42,0004.15,0003.99
2023-01-29 07:26:00,,0823.8,4.99,0.00,22.4,22.8,00.0,31.1,24.4,06.9,0000.0,0005.42,0004.15,0003.99
2023-01-29 07:27:00,,0823.8,4.99,0.00,22.4,22.3,00.0,31.2,24.3,06.9,0000.0,0005.41,0004.15,0003.99
2023-01-29 07:28:00,,0823.8,5.02,0.00,22.4,21.7,00.0,31.2,24.2,06.9,0000.0,0005.50,0004.18,0004.00
2023-01-29 07:29:00,,0823.7,5.00,0.00,22.3,21.3,00.0,31.2,24.0,06.9,0000.0,0005.57,0004.20,0004.01
2023-01-29 07:30:00,,0823.7,4.98,0.00,22.3,20.9,00.0,31.2,23.9,06.9,0000.0,0005.47,0004.18,0004.01
2023-01-29 07:31:00,,0823.7,4.99,0.00,22.2,20.6,00.0,31.2,23.8,06.9,0000.0,0005.41,0004.17,0003.99
2023-01-29 07:32:00,,0823.7,5.00,0.00,22.2,20.4,00.0,31.2,23.7,07.0,0000.0,0005.09,0004.15,0003.97
2023-01-29 07:33:00,,0823.7,5.00,0.00,22.1,20.5,00.0,31.1,23.7,07.0,0000.0,0005.12,0004.17,0003.98
2023-01-29 07:34:00,,0823.7,5.00,0.00,22.2,21.4,00.0,31.1,24.0,06.9,0000.0,0005.17,0004.18,0003.98
2023-01-29 07:35:00,,0823.8,4.99,0.00,22.3,22.4,00.0,31.1,24.2,06.9,0000.0,0005.19,0004.18,0003.98
2023-01-29 07:36:00,,0823.7,5.01,0.00,22.4,22.5,00.0,31.1,24.4,06.9,0000.0,0005.18,0004.17,0003.98
2023-01-29 07:37:00,,0823.7,5.00,0.00,22.4,22.0,00.0,31.2,24.2,06.9,0000.0,0005.24,0004.18,0003.97
2023-01-29 07:38:00,,0823.7,5.01,0.00,22.4,21.4,00.0,31.2,24.1,06.9,0000.0,0005.32,0004.20,0003.97
2023-01-29 07:39:00,,0823.7,5.00,0.00,22.3,21.0,00.0,31.2,23.9,06.9,0000.0,0005.26,0004.18,0003.96
2023-01-29 07:40:00,,0823.7,5.00,0.00,22.2,20.7,00.0,31.2,23.8,06.9,0000.0,0005.32,0004.18,0003.94
2023-01-29 07:41:00,,0823.7,4.99,0.00,22.2,20.4,00.0,31.2,23.7,06.9,0000.0,0005.32,0004.18,0003.93
2023-01-29 07:42:00,,0823.7,5.00,0.00,22.1,20.2,00.0,31.1,23.6,06.9,0000.0,0005.37,0004.18,0003.92
2023-01-29 07:43:00,,0823.7,5.01,0.00,22.1,20.7,00.0,31.1,23.8,06.9,0000.0,0005.35,0004.16,0003.91
2023-01-29 07:44:00,,0823.7,5.00,0.00,22.2,21.8,00.0,31.1,24.1,06.9,0000.0,0005.36,0004.15,0003.89
2023-01-29 07:45:00,,0823.7,5.00,0.00,22.3,22.6,00.0,31.1,24.3,06.9,0000.0,0005.27,0004.12,0003.88
2023-01-29 07:46:00,,0823.6,4.99,0.00,22.4,22.2,00.0,31.1,24.2,06.8,0000.0,0005.32,0004.13,0003.88
2023-01-29 07:47:00,,0823.6,5.00,0.00,22.3,21.7,00.0,31.1,24.1,06.8,0000.0,0005.42,0004.14,0003.88
2023-01-29 07:48:00,,0823.5,5.00,0.00,22.3,21.2,00.0,31.2,23.9,06.9,0000.0,0005.43,0004.14,0003.88
2023-01-29 07:49:00,,0823.6,4.99,0.00,22.2,20.9,00.0,31.1,23.8,06.9,0000.0,0005.38,0004.14,0003.88
2023-01-29 07:50:00,,0823.7,5.00,0.00,22.2,20.6,00.0,31.1,23.7,06.9,0000.0,0005.35,0004.14,0003.89
2023-01-29 07:51:00,,0823.7,5.01,0.00,22.1,20.3,00.0,31.1,23.6,06.9,0000.0,0005.48,0004.16,0003.91
2023-01-29 07:52:00,,0823.7,5.00,0.00,22.1,20.8,00.0,31.1,23.7,06.9,0000.0,0005.68,0004.21,0003.94
2023-01-29 07:53:00,,0823.7,5.01,0.00,22.2,21.8,00.0,31.0,24.0,06.9,0000.0,0005.81,0004.24,0003.95
2023-01-29 07:54:00,,0823.7,5.00,0.00,22.3,22.6,00.0,31.0,24.3,06.9,0000.0,0005.98,0004.28,0003.96
2023-01-29 07:55:00,,0823.6,4.98,0.00,22.4,22.3,00.0,31.1,24.3,06.9,0000.0,0006.06,0004.30,0003.97
2023-01-29 07:56:00,,0823.6,5.00,0.00,22.3,21.8,00.0,31.1,24.1,06.9,0000.0,0006.21,0004.34,0003.99
2023-01-29 07:57:00,,0823.6,5.00,0.00,22.3,21.2,00.0,31.1,23.9,06.9,0000.0,0006.15,0004.34,0003.99
2023-01-29 07:58:00,,0823.6,4.98,0.00,22.2,20.9,00.0,31.1,23.8,06.9,0000.0,0006.04,0004.33,0004.01
2023-01-29 07:59:00,,0823.6,5.01,0.00,22.2,20.6,00.0,31.1,23.7,06.9,0000.0,0006.01,0004.33,0004.02
